STARLINK-4034 (52700 NORAD) Tracking and Keplerian Element Data
This shows tracking and keplerian element data for the satellite.
Feedback or suggestion? Click here.
Element | Value |
Catalog | 52700 |
Name | STARLINK-4034 |
Epoch Orbit | 130 |
Epoch Day | 228.91667824 |
Epoch Year | 2022 |
RAAN | 228.502 |
Inclination | 53.2162 |
Eccentricity | 0.0002022 |
Argument of Perigee | 51.8067 |
Mean Anonmoly | 51.4079 |
Mean Motion | 15.08829627 |
Decay Rate | 0.00041401 |
L1 | 1 52700U 22053AW 22228.91667824 .00041401 00000+0 26049-2 0 9997 |
L2 | 2 52700 53.2162 228.5020 0002022 51.8067 51.4079 15.08829627 1305 |
Live tracking and technical data element details for STARLINK-4034 (NORAD 52700). STARLINK-4034 can be tracked NOW for your location showing map with azimuth and elevation plus other details from your city location.
Track the satellite on the map from your city or location and see movement details for azimuth, elevation, latitude, longitude, range, height, and movement on the map or in text.
IsCatalogInMostPopularTable: catalog: 52700, numindb: 8
Update: records affected: 1
GetName: 52700 STARLINK-4034
Hit Count: updated at: Thu, 18 Aug 2022 19:02:08 GMT